Date,TemperatureHighF,TemperatureAvgF,TemperatureLowF,DewpointHighF,DewpointAvgF,DewpointLowF,HumidityHigh,HumidityAvg,HumidityLow,PressureMaxIn,PressureMinIn,WindSpeedMaxMPH,WindSpeedAvgMPH,GustSpeedMaxMPH,PrecipitationSumIn
2013-1-1,38,32,23,37,28,19,95,87,79,30.32,30.07,7,1,16,0.00
2013-1-2,42,26,18,28,21,16,91,83,59,30.32,29.49,4,0,11,0.01
2013-1-3,53,35,22,31,24,20,92,68,33,30.48,29.73,7,1,10,0.00
2013-1-4,53,36,21,27,23,18,91,63,30,30.48,30.33,9,2,16,0.00
2013-1-5,53,41,31,34,30,24,89,65,42,30.34,30.18,12,3,21,0.00
2013-1-6,58,36,24,30,22,16,89,62,19,30.40,30.29,4,1,7,0.00
2013-1-7,57,39,23,29,25,19,85,58,32,30.37,30.12,14,3,21,0.00
2013-1-8,60,46,35,45,35,25,93,65,39,30.21,30.05,10,3,18,0.30
2013-1-9,55,50,46,47,44,39,95,80,55,30.34,30.17,8,3,17,0.06
2013-1-10,58,52,49,55,49,43,95,89,73,30.17,29.82,7,3,14,0.20
2013-1-11,73,66,61,50,46,44,63,50,35,29.83,29.69,12,6,25,0.20
2013-1-12,61,40,26,51,29,20,89,66,24,30.13,29.83,9,3,23,0.20
2013-1-13,38,27,20,20,15,11,79,63,39,30.41,30.03,0,0,0,0.04
2013-1-14,41,28,18,18,14,11,83,59,31,30.50,30.34,8,1,13,0.02
2013-1-15,37,28,20,21,15,10,84,60,34,30.35,30.21,6,2,17,0.00
2013-1-16,54,33,18,22,16,11,87,56,20,30.24,30.12,9,2,12,0.00
2013-1-17,60,42,27,32,27,19,78,59,28,30.50,30.22,9,2,17,0.00
2013-1-18,61,46,29,33,29,25,85,55,27,30.51,30.20,14,5,23,0.00
2013-1-19,71,52,41,36,34,31,76,52,23,30.22,30.09,11,4,18,0.00
2013-1-20,72,51,33,41,31,16,77,46,30,30.32,30.12,11,3,24,0.00
2013-1-21,48,34,25,17,14,9,61,45,22,30.44,30.30,8,3,24,0.00
2013-1-22,59,39,24,28,22,16,74,52,29,30.34,30.18,11,3,16,0.00
2013-1-23,68,47,29,43,34,24,81,62,37,30.27,30.13,8,2,12,0.00
2013-1-24,48,40,36,38,23,18,69,49,40,30.30,30.12,9,3,19,0.00
2013-1-25,56,43,33,30,26,22,66,52,31,30.26,30.14,4,1,10,0.00
2013-1-26,56,46,33,35,30,26,77,54,37,30.27,30.09,11,4,18,0.00
2013-1-27,62,55,46,57,50,34,94,84,61,30.11,29.89,15,6,24,0.00
2013-1-28,76,69,59,63,61,56,89,77,61,29.95,29.77,17,7,25,0.00
2013-1-29,72,59,42,63,54,37,95,84,60,29.77,29.46,16,5,25,0.92
2013-1-30,44,38,27,38,27,22,86,67,45,30.09,29.62,13,5,27,0.00
2013-1-31,58,35,23,28,21,9,87,59,29,30.48,30.03,12,3,24,0.00